Granite Falls, MN

11:15 AM CDT on March 24, 2017 (GMT -0500)
Granite Falls

Weather History for KGDB - June, 2013

Change the Weather History Date:

Wednesday, June 19, 2013

  Actual Average (KMVE) Record (KMVE)
Temperature  
Mean Temperature 74 °F -  
Max Temperature 88 °F 80 °F 100 °F (1988)
Min Temperature 61 °F 56 °F 39 °F (1976)
Cooling Degree Days 10    
Growing Degree Days 24 (Base 50)    
Moisture  
Dew Point 55 °F    
Average Humidity 53    
Maximum Humidity 86    
Minimum Humidity 25    
Precipitation  
Precipitation 0.00 in - - ()
Sea Level Pressure  
Sea Level Pressure 29.96 in    
Wind  
Wind Speed 8 mph (SE)    
Max Wind Speed 20 mph    
Max Gust Speed 25 mph    
Visibility 10 miles    
Events      
Averages and records for this station are not official NWS values.
T = Trace of Precipitation, MM = Missing Value Source: NWS Daily Summary

Daily Weather History Graph

Daily Weather History Graph

Search for Another Location

Airport or City:

Trip Planner

Search our weather history database for the weather conditions in past years. The results will help you decide how hot, cold, wet, or windy it might be!

Date:

Astronomy

Jun. 19, 2013 Rise Set
Actual Time 5:36 AM CDT 9:11 PM CDT
Civil Twilight 4:59 AM CDT 9:48 PM CDT
Nautical Twilight 4:09 AM CDT 10:37 PM CDT
Astronomical Twilight 3:05 AM CDT 11:42 PM CDT
Moon 4:58 PM CDT (6/19) 2:29 AM CDT (6/19)
Length of Visible Light 16h 49m
Length of Day
15h 35m
Waxing Gibbous, 80% of the Moon is Illuminated
Jun 19
Waxing Gibbous
Jun 23
Full
Jun 29
Last Quarter
Jul 8
New
Jul 15
First Quarter

Hourly Weather History & Observations

Time (CDT) Temp. Heat Index Dew Point Humidity Pressure Visibility Wind Dir Wind Speed Gust Speed Precip Events Conditions
12:12 AM 65.3 °F - 56.3 °F 73% 30.03 in 10.0 mi ESE 4.6 mph - N/A   Scattered Clouds
12:32 AM 65.1 °F - 56.3 °F 73% 30.03 in 10.0 mi ESE 8.1 mph - N/A   Scattered Clouds
12:52 AM 64.6 °F - 56.5 °F 75% 30.03 in 10.0 mi East 5.8 mph - N/A   Scattered Clouds
1:12 AM 64.2 °F - 56.7 °F 76% 30.03 in 10.0 mi East 5.8 mph - N/A   Scattered Clouds
1:32 AM 63.9 °F - 56.5 °F 77% 30.03 in 10.0 mi East 5.8 mph - N/A   Scattered Clouds
1:52 AM 63.5 °F - 56.7 °F 78% 30.02 in 10.0 mi ESE 6.9 mph - N/A   Mostly Cloudy
2:12 AM 63.7 °F - 56.5 °F 77% 30.01 in 10.0 mi East 5.8 mph - N/A   Scattered Clouds
2:31 AM 63.7 °F - 56.7 °F 78% 30.01 in 10.0 mi East 5.8 mph - N/A   Scattered Clouds
2:52 AM 63.0 °F - 57.0 °F 81% 30.01 in 10.0 mi East 4.6 mph - N/A   Scattered Clouds
3:12 AM 63.0 °F - 57.0 °F 81% 30.01 in 10.0 mi East 4.6 mph - N/A   Scattered Clouds
3:31 AM 63.1 °F - 57.0 °F 80% 30.00 in 10.0 mi East 6.9 mph - N/A   Clear
3:52 AM 63.0 °F - 57.2 °F 81% 30.00 in 10.0 mi ESE 9.2 mph - N/A   Clear
4:12 AM 63.0 °F - 56.8 °F 80% 30.00 in 10.0 mi ESE 5.8 mph - N/A   Clear
4:32 AM 63.0 °F - 57.0 °F 81% 30.01 in 10.0 mi SE 5.8 mph - N/A   Clear
4:51 AM 61.7 °F - 56.3 °F 82% 30.01 in 10.0 mi ESE 4.6 mph - N/A   Clear
5:12 AM 61.7 °F - 56.5 °F 83% 30.02 in 10.0 mi ESE 6.9 mph - N/A   Clear
5:32 AM 61.9 °F - 56.5 °F 82% 30.02 in 10.0 mi ESE 6.9 mph - N/A   Clear
5:52 AM 61.5 °F - 56.3 °F 83% 30.02 in 7.0 mi ESE 6.9 mph - N/A   Clear
6:12 AM 61.0 °F - 56.7 °F 86% 30.02 in 7.0 mi East 4.6 mph - N/A   Clear
6:31 AM 61.2 °F - 56.7 °F 85% 30.02 in 7.0 mi East 3.5 mph - N/A   Clear
6:52 AM 61.3 °F - 56.7 °F 85% 30.02 in 7.0 mi ESE 6.9 mph - N/A   Clear
7:11 AM 63.0 °F - 56.8 °F 80% 30.02 in 7.0 mi ESE 6.9 mph - N/A   Scattered Clouds
7:32 AM 64.8 °F - 57.0 °F 76% 30.02 in 7.0 mi ESE 11.5 mph - N/A   Scattered Clouds
7:52 AM 66.7 °F - 57.2 °F 71% 30.01 in 7.0 mi SE 10.4 mph - N/A   Clear
8:12 AM 68.2 °F - 57.0 °F 67% 30.02 in 7.0 mi SE 10.4 mph - N/A   Clear
8:32 AM 69.3 °F - 57.4 °F 66% 30.02 in 7.0 mi SSE 11.5 mph - N/A   Scattered Clouds
8:52 AM 70.0 °F - 58.1 °F 66% 30.01 in 7.0 mi SE 9.2 mph - N/A   Mostly Cloudy
9:12 AM 71.4 °F - 58.5 °F 64% 30.01 in 10.0 mi SSE 8.1 mph - N/A   Scattered Clouds
9:32 AM 73.4 °F - 58.5 °F 59% 30.01 in 10.0 mi SE 9.2 mph - N/A   Clear
9:52 AM 75.6 °F - 59.0 °F 56% 30.00 in 10.0 mi SSE 9.2 mph - N/A   Clear
10:12 AM 77.0 °F - 58.6 °F 53% 30.00 in 10.0 mi SE 8.1 mph - N/A   Clear
10:32 AM 78.3 °F - 59.0 °F 51% 30.00 in 10.0 mi ESE 6.9 mph - N/A   Clear
10:52 AM 80.6 °F 80.9 °F 57.9 °F 46% 29.99 in 10.0 mi SE 10.4 mph - N/A   Clear
11:12 AM 81.0 °F 80.9 °F 56.5 °F 43% 29.98 in 10.0 mi SE 8.1 mph - N/A   Clear
11:32 AM 82.2 °F 81.6 °F 55.6 °F 40% 29.98 in 10.0 mi SSE 9.2 mph - N/A   Clear
11:52 AM 83.8 °F - 52.5 °F 34% 29.97 in 10.0 mi SSE 11.5 mph - N/A   Scattered Clouds
12:12 PM 83.1 °F - 51.3 °F 33% 29.97 in 10.0 mi South 10.4 mph - N/A   Scattered Clouds
12:32 PM 84.2 °F - 51.4 °F 32% 29.97 in 10.0 mi SSE 11.5 mph - N/A   Mostly Cloudy
12:52 PM 82.9 °F - 50.9 °F 33% 29.97 in 10.0 mi SSE 10.4 mph - N/A   Overcast
1:12 PM 83.5 °F - 50.5 °F 32% 29.96 in 10.0 mi ESE 10.4 mph - N/A   Mostly Cloudy
1:32 PM 85.1 °F - 49.8 °F 29% 29.96 in 10.0 mi ESE 9.2 mph 16.1 mph N/A   Scattered Clouds
1:52 PM 85.5 °F - 50.0 °F 29% 29.95 in 10.0 mi SE 11.5 mph 17.3 mph N/A   Scattered Clouds
2:12 PM 84.2 °F - 49.6 °F 30% 29.94 in 10.0 mi SE 11.5 mph - N/A   Mostly Cloudy
2:32 PM 85.3 °F - 50.2 °F 30% 29.94 in 10.0 mi SSE 13.8 mph 19.6 mph N/A   Overcast
2:52 PM 88.0 °F - 49.6 °F 27% 29.93 in 10.0 mi SE 10.4 mph 25.3 mph N/A   Scattered Clouds
3:12 PM 86.2 °F - 48.4 °F 27% 29.93 in 10.0 mi SSE 10.4 mph - N/A   Scattered Clouds
3:32 PM 86.9 °F - 46.8 °F 25% 29.92 in 10.0 mi SSE 11.5 mph 16.1 mph N/A   Mostly Cloudy
3:52 PM 87.4 °F - 48.6 °F 26% 29.92 in 10.0 mi SSE 9.2 mph 17.3 mph N/A   Scattered Clouds
4:12 PM 86.2 °F - 47.8 °F 26% 29.91 in 10.0 mi SE 12.7 mph 16.1 mph N/A   Scattered Clouds
4:31 PM 88.0 °F - 48.6 °F 26% 29.91 in 10.0 mi SSE 13.8 mph 19.6 mph N/A   Scattered Clouds
4:52 PM 87.1 °F - 47.8 °F 26% 29.91 in 10.0 mi SSE 11.5 mph 20.7 mph N/A   Scattered Clouds
5:12 PM 86.4 °F - 48.9 °F 27% 29.90 in 10.0 mi SE 12.7 mph - N/A   Scattered Clouds
5:32 PM 86.4 °F - 49.5 °F 28% 29.90 in 10.0 mi SE 18.4 mph 23.0 mph N/A   Mostly Cloudy
5:52 PM 86.5 °F - 51.3 °F 30% 29.90 in 10.0 mi SE 19.6 mph - N/A   Mostly Cloudy
6:12 PM 86.2 °F - 51.6 °F 30% 29.89 in 10.0 mi SSE 12.7 mph 18.4 mph N/A   Scattered Clouds
6:32 PM 85.8 °F - 51.8 °F 31% 29.89 in 10.0 mi SSE 16.1 mph 25.3 mph N/A   Scattered Clouds
6:51 PM 85.1 °F - 52.2 °F 32% 29.90 in 10.0 mi SE 18.4 mph - N/A   Scattered Clouds
7:12 PM 84.4 °F - 52.7 °F 33% 29.90 in 10.0 mi SSE 15.0 mph 20.7 mph N/A   Scattered Clouds
7:32 PM 84.2 °F 82.8 °F 53.6 °F 35% 29.89 in 10.0 mi SE 13.8 mph - N/A   Clear
7:52 PM 84.2 °F 82.8 °F 54.0 °F 35% 29.89 in 10.0 mi SSE 12.7 mph - N/A   Clear
8:12 PM 82.8 °F 81.9 °F 54.7 °F 38% 29.90 in 10.0 mi SE 12.7 mph - N/A   Clear
8:32 PM 82.4 °F 81.7 °F 54.9 °F 39% 29.89 in 10.0 mi SE 9.2 mph - N/A   Clear
8:52 PM 81.5 °F 81.1 °F 55.6 °F 41% 29.89 in 10.0 mi SE 9.2 mph - N/A   Clear
9:12 PM 80.6 °F 80.6 °F 56.1 °F 43% 29.89 in 10.0 mi SE 8.1 mph - N/A   Clear
9:32 PM 80.4 °F 80.5 °F 55.9 °F 43% 29.90 in 10.0 mi ESE 8.1 mph - N/A   Clear
9:52 PM 79.2 °F - 55.6 °F 44% 29.91 in 10.0 mi ESE 9.2 mph - N/A   Clear
10:12 PM 78.8 °F - 56.5 °F 46% 29.91 in 10.0 mi ESE 8.1 mph - N/A   Scattered Clouds
10:32 PM 77.9 °F - 57.6 °F 49% 29.92 in 10.0 mi SE 10.4 mph - N/A   Scattered Clouds
10:52 PM 77.0 °F - 58.5 °F 53% 29.92 in 10.0 mi SE 10.4 mph - N/A   Clear
11:12 PM 77.0 °F - 59.2 °F 54% 29.92 in 10.0 mi SE 10.4 mph - N/A   Clear
11:31 PM 76.1 °F - 59.4 °F 56% 29.91 in 10.0 mi SE 8.1 mph - N/A   Clear
11:52 PM 74.3 °F - 59.5 °F 60% 29.91 in 10.0 mi SE 9.2 mph - N/A   Clear